Location: *
(51.8167°N, 12.5000°E)
Time: 12:30:06
(UTC+00:00)

Cosmos 2082 - Pass Details

Date: 16 September 2019
Orbit: 834 x 855 km, 71.0° (Epoch: 15 October)

Event Time Altitude Azimuth Distance (km) Brightness Sun altitude
Exits shadow 21:05:25 72° 323° (NW) 901 3.8 -30.1°
Drops below altitude 10° 21:10:57 10° 28° (NNE) 2,495 6.4 -30.6°
Sets 21:13:26 0° 31° (NNE) 3,433 7.2 -30.8°
